Current weather by "City, St" or "zip code"  
 

Current Conditions: Thomasville Regional Airport, GA

Fair


45.0 F

Last Updated on Apr 23 2021, 5:55 am EDT
Humidity: 93%
Wind Speed: N 0.0 mph
Barometer 30.17 in
Dewpoint: 42.8 F
Visibility: 10.00 mi
Precip: --
Heat Index: NA
Wind Chill: NA
Current conditions at:

Thomasville Regional Airport, GA (KTVI)

Lat: 30.90179 Lon: 83.88113

Local Radar Image active severe weather and emergency alerts image image weather storm and storm spotter reports image weather observation monitoring service image
Local
Radar
Active
Alerts
Storm Reports Obs
Monitoring

Sign-up For Email & Text Message Weather Alert Notification Services



Advertise Here

Observation History for Thomasville Regional Airport, GA


Time Wind
(mph)
Vis
(mi)
Weather Precip (in) Temperature (F) Relative
Humidity
Wind
Chill
(F)
Heat
Index
(F)
Pressure
Air Dwpt altimeter
(in)
sea level
(mb)
Rmks
5:55 am EDT N 0.0 10.00 Fair -- 45.0 42.8 93% NA NA 30.17 M
4:55 am EDT N 0.0 10.00 Fair -- 45.0 41.0 87% NA NA 30.16 M
3:55 am EDT N 0.0 10.00 Fair -- 46.0 41.0 82% NA NA 30.16 M
2:55 am EDT SE 3.5 10.00 Fair -- 46.0 41.0 82% NA NA 30.16 M
1:55 am EDT N 0.0 10.00 Fair -- 46.0 42.8 87% NA NA 30.17 M
12:55 am EDT N 0.0 10.00 Fair -- 48.0 44.6 87% NA NA 30.18 M
11:55 pm EDT N 0.0 10.00 Fair -- 50.0 42.8 76% NA NA 30.17 M
10:55 pm EDT N 0.0 10.00 Fair -- 50.0 42.8 76% NA NA 30.18 M
10:35 pm EDT N 0.0 10.00 Fair -- 50.0 42.8 76% NA NA 30.18 M
9:55 pm EDT N 0.0 10.00 Fair -- 52.0 42.8 72% NA NA 30.17 M
8:55 pm EDT N 0.0 10.00 Fair -- 54.0 39.2 58% NA NA 30.14 M
7:55 pm EDT N 0.0 10.00 Fair -- 59.0 41.0 51% NA NA 30.14 M
6:55 pm EDT N 0.0 10.00 Fair -- 64.0 32.0 30% NA NA 30.14 M
5:55 pm EDT E 4.6 10.00 Fair -- 64.0 30.2 28% NA NA 30.15 M
4:55 pm EDT N 0.0 10.00 Fair -- 64.0 30.2 28% NA NA 30.15 M
3:55 pm EDT N 3.5 10.00 Fair -- 64.0 32.0 30% NA NA 30.17 M
2:55 pm EDT NE 6.9 10.00 Fair -- 63.0 30.2 30% 63 NA 30.19 M
1:55 pm EDT NE 5.8 10.00 Fair -- 61.0 30.2 31% 61 NA 30.22 M
12:55 pm EDT NE 9.2 10.00 Fair -- 59.0 30.2 34% 57 NA 30.24 M
12:35 pm EDT NE 6.9 G 16.1 10.00 Fair -- 57.0 28.4 33% 56 NA 30.24 M
11:55 am EDT E 4.6 10.00 Fair -- 55.0 26.6 33% 54 NA 30.24 M
10:55 am EDT NE 11.5 10.00 Partly Cloudy -- 54.0 28.4 38% 51 NA 30.24 M
10:35 am EDT NE 11.5 G 18.4 10.00 Fair -- 52.0 26.6 38% 48 NA 30.24 M
9:55 am EDT E 16.1 G 20.7 10.00 Fair -- 52.0 28.4 41% 47 NA 30.23 M

Regional Weather Observation


Moultrie, Moultrie Municipal Airport, GA (KMGR)

Fair
45.0 F

Southwest Georgia Regional Airport, GA (KABY)

Fair
45.0 F

Thomasville Regional Airport, GA (KTVI)

Fair
45.0 F

Bainbridge, Decatur County Industrial Air Park Airport, GA (KBGE)

Fair
46.0 F

Donalsonville Municipal Airport, GA (K17J)

Fair
49.0 F

Tifton Henry Tift Myers, GA (KTMA)

Fair
43.0 F

Advertise Here


Advertise Here